User: anonymous   Login
Location: Unspecified
(0.0000°N, 0.0000°E)
Time: 15:48:27
(UTC+00:00)
Language:

Hubble Space Telescope - Orbit

View from above orbital plane
View from above orbital plane
View from above satellite
View from above satellite

Ground track
Ground track

The orbit data is extracted from the following two-line orbital elements,

1 20580U 90037B   16040.21041008  .00001789  00000-0  10171-3 0  9999
2 20580  28.4709  30.3257 0002604 261.1943 208.7706 15.08130832215611
Epoch (UTC): 09 February 2016 05:02:59
Eccentricity: 0.0002604
inclination: 28.4709°
perigee height: 540 km
apogee height: 544 km
right ascension of ascending node: 30.3257°
argument of perigee: 261.1943°
revolutions per day: 15.08130832
mean anomaly at epoch: 208.7706°
orbit number at epoch: 21561

The dashed part of the orbit path shows where the satellite is in the earth's shadow,  

DLR